Weather History for Tampa Macdill AFB, FL

Change the Weather History Date:

Sunday, December 2, 2012

  Actual Average Record
Temperature  
Mean Temperature 70 °F -  
Max Temperature 82 °F 73 °F 82 °F (1998)
Min Temperature 58 °F 54 °F 41 °F (2010)
Cooling Degree Days 5    
Growing Degree Days 20 (Base 50)    
Moisture  
Dew Point 61 °F    
Average Humidity 79    
Maximum Humidity 100    
Minimum Humidity 39    
Precipitation  
Precipitation 0.00 in - - ()
Sea Level Pressure  
Sea Level Pressure 30.24 in    
Wind  
Wind Speed 8 mph (East)    
Max Wind Speed 13 mph    
Max Gust Speed -    
Visibility 10 miles    
Events      
Averages and records for this station are not official NWS values.
T = Trace of Precipitation, MM = Missing Value Source: NWS Daily Summary

Daily Weather History Graph

Daily Weather History Graph

Search for Another Location

Airport:

Trip Planner

Search our weather history database for the weather conditions in past years. The results will help you decide how hot, cold, wet, or windy it might be!

Date:

Astronomy

Dec. 02, 2012 Rise Set
Actual Time 7:04 AM EST 5:34 PM EST
Civil Twilight 6:39 AM EST 5:59 PM EST
Nautical Twilight 6:10 AM EST 6:28 PM EST
Astronomical Twilight 5:42 AM EST 6:57 PM EST
Moon 9:12 PM EST (12/2) 10:00 AM EST (12/2)
Length of Visible Light 11h 20m
Length of Day
10h 29m
Waning Gibbous, 86% of the Moon is Illuminated
Dec 2
Waning Gibbous
Dec 6
Last Quarter
Dec 13
New
Dec 20
First Quarter
Dec 28
Full

Hourly Weather History & Observations

Time (EST) Temp. Heat Index Dew Point Humidity Pressure Visibility Wind Dir Wind Speed Gust Speed Precip Events Conditions
12:55 AM 58.3 °F - 57.7 °F 98% 30.24 in 10.0 mi ENE 6.9 mph - N/A   Clear
1:55 AM 58.8 °F - 58.5 °F 99% 30.24 in 10.0 mi ENE 6.9 mph - N/A   Mostly Cloudy
2:55 AM 62.4 °F - 62.1 °F 99% 30.23 in 10.0 mi ENE 6.9 mph - N/A   Mostly Cloudy
3:55 AM 63.0 °F - 62.8 °F 99% 30.22 in 10.0 mi East 6.9 mph - N/A   Scattered Clouds
4:55 AM 62.4 °F - 62.1 °F 99% 30.23 in 10.0 mi ENE 9.2 mph - N/A   Mostly Cloudy
5:55 AM 60.4 °F - 60.3 °F 99% 30.24 in 10.0 mi ENE 8.1 mph - N/A   Clear
6:55 AM 58.8 °F - 58.6 °F 99% 30.26 in 10.0 mi ENE 8.1 mph - N/A   Clear
7:55 AM 61.7 °F - 61.7 °F 100% 30.27 in 10.0 mi East 10.4 mph - N/A   Clear
8:55 AM 66.2 °F - 63.9 °F 92% 30.29 in 10.0 mi East 10.4 mph - N/A   Clear
9:55 AM 71.1 °F - 65.1 °F 81% 30.29 in 10.0 mi ENE 9.2 mph - N/A   Partly Cloudy
10:55 AM 76.3 °F - 65.1 °F 68% 30.28 in 10.0 mi East 12.7 mph - N/A   Clear
11:55 AM 79.3 °F - 63.7 °F 59% 30.26 in 10.0 mi East 10.4 mph - N/A   Clear
12:55 PM 81.1 °F 82.0 °F 61.2 °F 51% 30.23 in 10.0 mi East 10.4 mph - N/A   Clear
1:55 PM 82.2 °F 82.3 °F 58.6 °F 45% 30.21 in 10.0 mi East 11.5 mph - N/A   Clear
2:55 PM 82.9 °F 82.1 °F 55.6 °F 39% 30.20 in 10.0 mi ENE 6.9 mph - N/A   Clear
3:55 PM 82.2 °F 81.6 °F 55.4 °F 40% 30.19 in 10.0 mi ENE 8.1 mph - N/A   Clear
4:55 PM 80.2 °F 80.5 °F 56.8 °F 45% 30.20 in 10.0 mi ENE 6.9 mph - N/A   Clear
5:55 PM 72.7 °F - 57.2 °F 58% 30.20 in 10.0 mi Calm Calm - N/A   Clear
6:55 PM 67.1 °F - 55.4 °F 66% 30.21 in 10.0 mi Calm Calm - N/A   Clear
7:55 PM 70.5 °F - 62.8 °F 76% 30.23 in 10.0 mi ESE 11.5 mph - N/A   Partly Cloudy
8:55 PM 68.4 °F - 64.4 °F 87% 30.24 in 10.0 mi East 8.1 mph - N/A   Clear
9:55 PM 66.4 °F - 64.4 °F 93% 30.24 in 10.0 mi East 6.9 mph - N/A   Clear
10:55 PM 64.9 °F - 64.0 °F 97% 30.23 in 10.0 mi East 5.8 mph - N/A   Clear
11:55 PM 64.4 °F - 63.5 °F 97% 30.22 in 10.0 mi East 6.9 mph - N/A   Clear